Location: Unspecified
(0.0000°N, 0.0000°E)
Time: 14:25:02
(UTC+00:00)

A-11 Canister half - Pass Details

Date: 26 May 2026
Orbit: 1524 x 1684 km, 47.3° (Epoch: 7 June)

Event Time Altitude Azimuth Distance (km) Brightness Sun altitude
Rises 00:37:06 0° 293° (WNW) 4,911 - -66.7°
Reaches altitude 10° 00:40:56 10° 281° (WNW) 3,935 - -66.3°
Maximum altitude 00:48:59 27° 228° (SW) 2,831 - -65.4°
Drops below altitude 10° 00:57:03 10° 175° (S) 3,930 - -64.3°
Sets 01:00:57 0° 162° (SSE) 4,903 - -63.8°
